Terminal Aerodrome Forecast
Issued by NWS Grand Junction, CO

Home | Current Version | Previous Version | Text Only | Print | Product List | Glossary On
Versions: 1 2 3 4 5 6 7 8 9 10 11 12
000
FTUS45 KGJT 160537
TAFGJT
TAF
KGJT 160537Z 1606/1706 10004KT P6SM BKN200
     FM161900 29005KT P6SM BKN200=

USA.gov is the U.S. government's official web portal to all federal, state and local government web resources and services.